Location: Bun Machan
(52.1403°N, 7.3744°W)
Time: 01:38:56
(UTC+00:00)

Cosmos 1184 Rocket - Pass Details

Date: 14 July 2020
Orbit: 408 x 421 km, 81.2° (Epoch: 11 August)

Event Time Altitude Azimuth Distance (km) Brightness Sun altitude
Exits shadow 02:22:56 19° 236° (WSW) 1,065 4.3 -12.6°
Maximum altitude 02:24:42 33° 289° (WNW) 734 3.9 -12.5°
Drops below altitude 10° 02:27:43 10° 356° (N) 1,510 6.5 -12.3°
Sets 02:29:54 0° 6° (N) 2,382 8.0 -12.1°
